User: anonymous   Login
Location: Unspecified
(0.0000°N, 0.0000°E)
Time: 21:06:12
(UTC+00:00)
Language:

BIRD - Orbit

View from above orbital plane
View from above orbital plane
View from above satellite
View from above satellite

Ground track
Ground track

The orbit data is extracted from the following two-line orbital elements,

1 26959U 01049C   18322.53617111  .00001435  00000-0  43147-4 0  9992
2 26959  97.8532 306.2672 0008249 354.0576   6.0568 15.36247734946013
Epoch (UTC): 18 November 2018 12:52:05
Eccentricity: 0.0008249
inclination: 97.8532°
perigee height: 451 km
apogee height: 463 km
right ascension of ascending node: 306.2672°
argument of perigee: 354.0576°
revolutions per day: 15.36247734
mean anomaly at epoch: 6.0568°
orbit number at epoch: 94601

The dashed part of the orbit path shows where the satellite is in the earth's shadow,  

DLR